Regional Weather Roundup
Issued by NWS

Home | Current Version | Previous Version | Graphics & Text | Print | Product List | Glossary On
Versions: 1 2 3 4 5 6 7 8 9 10 11 12 13 14 15 16 17 18 19 20 21 22 23 24 25 26 27 28 29 30 31 32 33 34 35 36 37 38 39 40 41 42 43 44 45 46 47 48 49 50
000
ASUS43 KLMK 182102
RWRKY
KENTUCKY REGIONAL WEATHER ROUNDUP
NATIONAL WEATHER SERVICE LOUISVILLE KY
500 PM EDT SAT APR 18 2015

NOTE "FAIR" INDICATES FEW OR NO CLOUDS BELOW 12,000 FEET
WITH NO SIGNIFICANT WEATHER AND/OR OBSTRUCTIONS TO VISIBILITY.

KYZ001>023-026-027-061>063-070>075-182200-
WESTERN AND SOUTH CENTRAL KENTUCKY

CITY           SKY/WX    TMP DP  RH WIND       PRES   REMARKS
PADUCAH        PTSUNNY   79  57  46 E5        29.87F
HENDERSON      PTSUNNY   77  55  47 NE9       29.89F
OWENSBORO      MOSUNNY   80  54  40 NE7       29.91F
HOPKINSVILLE   SUNNY     78  58  50 E12       29.88F
BOWLING GREEN  PTSUNNY   79  56  45 E5        29.92F
GLASGOW        NOT AVBL
$$

KYZ024-025-028>034-038-045-046-053-182200-
NORTH CENTRAL KENTUCKY

CITY           SKY/WX    TMP DP  RH WIND       PRES   REMARKS
LOUISVILLE/SDF PTSUNNY   80  45  28 SE10      29.94F
LOUISVILLE/LOU PTSUNNY   80  46  30 NE6       29.94F
FORT KNOX      MOSUNNY   79  50  35 NE13      29.92S
$$

KYZ035>037-039>044-047>052-055>060-089>105-182200-
NORTHEAST KENTUCKY

CITY           SKY/WX    TMP DP  RH WIND       PRES   REMARKS
LEXINGTON      SUNNY     76  51  41 NE9       29.97F
COVINGTON      PTSUNNY   77  45  32 NE12      29.98F
FRANKFORT      MOSUNNY   77  46  33 E8        29.95F
$$

KYZ054-064>069-076>088-106>120-182200-
SOUTHEAST KENTUCKY

CITY           SKY/WX    TMP DP  RH WIND       PRES   REMARKS
JACKSON        SUNNY     80  45  28 CALM      29.94F
LONDON         MOSUNNY   80  48  32 CALM      29.93F
SOMERSET       NOT AVBL
MIDDLESBORO    PTSUNNY   79  53  39 CALM      29.92F
MONTICELLO     CLOUDY    81  57  43 NE10      29.96S
$$




USA.gov is the U.S. government's official web portal to all federal, state and local government web resources and services.